Temp
-6 -6 -6 -6 -6 -6 -6 -6 -6 -6 -6 -6 -6 -6 -6 -6 -6 -6 -6 -6 -6 -6 -6 -6 -6 -6 -6 -6 -6 -6 -6 -6 -6 -6 -6 -6 -7 -7 -7 -7 -7 -7
-6 -6 -6 -6 -6 -6 -6 -6 -6 -6 -6 -6 -6 -6 -6 -6 -6 -6 -6 -6 -6 -6 -6 -6 -6 -6 -6 -6 -6 -6 -6 -6 -6 -6 -6 -7 -7 -7 -7 -7 -7 -7
-6 -6 -6 -6 -6 -6 -6 -6 -6 -6 -6 -6 -6 -6 -6 -6 -6 -6 -6 -6 -6 -6 -6 -6 -6 -6 -6 -6 -6 -7 -7 -7 -7 -7 -7 -7 -7 -7 -7 -7 -7 -7
-6 -6 -6 -6 -6 -6 -6 -6 -6 -6 -6 -6 -6 -6 -6 -6 -6 -6 -6 -6 -6 -6 -6 -6 -6 -6 -7 -7 -7 -7 -7 -7 -7 -7 -7 -7 -7 -7 -7 -7 -7 -7
-6 -6 -6 -6 -6 -6 -6 -6 -6 -6 -6 -6 -6 -6 -6 -6 -6 -6 -6 -6 -6 -6 -6 -6 -6 -6 -6 -7 -7 -7 -7 -7 -7 -7 -7 -7 -7 -7 -7 -7 -7 -7
-6 -6 -6 -6 -6 -6 -6 -6 -6 -6 -6 -6 -6 -6 -6 -6 -6 -6 -6 -6 -6 -6 -6 -6 -6 -6 -6 -6 -6 -7 -7 -7 -7 -7 -7 -7 -7 -7 -7 -7 -7 -7
-6 -6 -6 -6 -6 -6 -6 -6 -6 -6 -6 -6 -6 -6 -6 -6 -6 -6 -6 -6 -6 -6 -6 -6 -6 -6 -6 -6 -6 -6 -7 -7 -7 -7 -7 -7 -7 -7 -7 -7 -7 -7
-6 -6 -6 -6 -6 -6 -6 -6 -6 -6 -6 -6 -6 -6 -6 -6 -6 -6 -6 -6 -6 -6 -6 -6 -6 -6 -6 -6 -6 -6 -6 -6 -6 -6 -6 -7 -7 -7 -7 -7 -7 -7
-6 -6 -6 -6 -6 -6 -6 -6 -6 -6 -6 -6 -6 -6 -6 -6 -6 -6 -6 -6 -6 -6 -6 -6 -6 -6 -6 -6 -6 -6 -6 -6 -6 -6 -6 -6 -6 -7 -7 -7 -7 -7
-6 -6 -6 -6 -6 -6 -6 -6 -6 -6 -6 -6 -6 -6 -6 -6 -6 -6 -6 -6 -6 -6 -6 -6 -6 -6 -6 -6 -6 -6 -6 -6 -6 -6 -6 -6 -6 -7 -7 -7 -7 -7
-6 -6 -6 -6 -6 -6 -6 -6 -6 -6 -6 -6 -6 -6 -6 -6 -6 -6 -6 -6 -6 -6 -6 -6 -6 -6 -6 -6 -6 -6 -6 -6 -6 -6 -6 -6 -6 -6 -6 -6 -6 -6
-6 -6 -7 -6 -6 -6 -6 -6 -6 -6 -6 -6 -6 -6 -6 -6 -6 -6 -6 -6 -6 -6 -6 -6 -6 -6 -6 -6 -7 -7 -7 -7 -6 -6 -6 -6 -6 -6 -6 -6 -6 -6
-6 -6 -6 -6 -6 -6 -6 -6 -6 -6 -6 -6 -6 -6 -6 -6 -6 -6 -6 -6 -6 -6 -6 -6 -6 -6 -6 -6 -7 -7 -7 -7 -6 -6 -6 -6 -6 -6 -6 -6 -6 -6
-6 -6 -6 -6 -6 -6 -6 -6 -6 -6 -6 -6 -6 -6 -6 -6 -6 -6 -6 -6 -6 -6 -6 -6 -6 -6 -6 -6 -6 -6 -6 -6 -6 -6 -6 -6 -6 -6 -7 -6 -6 -6
-6 -6 -6 -6 -6 -6 -6 -6 -6 -6 -6 -6 -6 -6 -6 -6 -6 -6 -6 -6 -6 -6 -6 -6 -6 -6 -6 -6 -6 -6 -6 -6 -6 -6 -6 -6 -6 -7 -7 -7 -6 -6
-7 -6 -6 -6 -6 -6 -6 -6 -6 -6 -6 -6 -6 -6 -6 -6 -6 -6 -6 -6 -6 -6 -6 -6 -6 -6 -6 -6 -6 -6 -6 -6 -6 -6 -6 -6 -6 -6 -7 -6 -6 -6
-7 -7 -7 -6 -6 -6 -6 -6 -6 -6 -6 -6 -6 -6 -6 -6 -6 -6 -6 -6 -6 -6 -6 -6 -6 -6 -6 -6 -6 -6 -6 -6 -6 -6 -6 -6 -6 -6 -6 -6 -6 -6
-7 -7 -7 -7 -7 -6 -6 -6 -6 -6 -6 -6 -6 -6 -6 -6 -6 -6 -6 -6 -6 -6 -6 -6 -6 -6 -6 -6 -6 -6 -6 -6 -6 -6 -6 -6 -6 -6 -6 -6 -6 -6
-7 -7 -7 -7 -7 -7 -6 -6 -6 -6 -6 -6 -6 -6 -6 -6 -6 -6 -6 -6 -6 -6 -6 -6 -6 -7 -6 -6 -6 -6 -6 -6 -6 -6 -6 -6 -6 -6 -6 -6 -6 -6
-7 -7 -7 -7 -7 -7 -7 -7 -6 -6 -6 -6 -6 -6 -6 -6 -6 -6 -6 -6 -6 -6 -6 -6 -6 -7 -7 -6 -6 -6 -6 -7 -6 -6 -6 -6 -6 -6 -6 -6 -6 -6
-7 -7 -7 -7 -7 -7 -7 -7 -7 -7 -7 -7 -7 -7 -7 -7 -7 -6 -6 -6 -6 -6 -6 -6 -6 -6 -7 -7 -7 -7 -7 -7 -7 -6 -6 -6 -6 -6 -7 -7 -7 -6
-7 -7 -7 -7 -7 -7 -7 -7 -7 -7 -7 -7 -8 -8 -8 -8 -7 -7 -7 -7 -7 -7 -7 -7 -7 -7 -7 -7 -7 -7 -7 -7 -7 -7 -7 -6 -6 -6 -7 -7 -7 -7
-8 -7 -7 -7 -7 -7 -7 -7 -7 -7 -8 -8 -8 -8 -8 -8 -8 -7 -7 -7 -7 -7 -7 -7 -7 -7 -7 -7 -7 -7 -7 -7 -7 -7 -7 -7 -7 -7 -7 -7 -7 -7
-8 -7 -7 -7 -7 -7 -7 -7 -7 -8 -8 -8 -8 -8 -8 -8 -8 -8 -8 -7 -7 -7 -7 -7 -7 -7 -7 -7 -7 -7 -7 -7 -7 -7 -7 -7 -7 -7 -7 -7 -7 -7
-8 -8 -7 -8 -8 -8 -8 -8 -7 -7 -8 -8 -8 -8 -8 -8 -8 -8 -8 -8 -8 -7 -7 -7 -7 -7 -7 -7 -7 -7 -7 -7 -7 -7 -7 -7 -7 -7 -7 -7 -7 -7
-8 -8 -8 -8 -8 -8 -8 -8 -7 -7 -7 -7 -8 -8 -8 -8 -8 -8 -8 -8 -8 -8 -8 -8 -8 -8 -8 -8 -8 -8 -8 -7 -7 -8 -8 -8 -8 -7 -7 -7 -7 -7
Height
5950 5952 5953 5954 5955 5956 5956 5957 5958 5959 5960 5960 5961 5962 5963 5963 5964 5965 5966 5967 5967 5967 5968 5968 5969 5969 5970 5970 5970 5971 5971 5971 5972 5973 5973 5974 5974 5975 5975 5976 5976 5977
5950 5951 5952 5953 5954 5955 5956 5957 5958 5958 5959 5960 5961 5961 5962 5963 5964 5965 5966 5967 5967 5968 5968 5968 5969 5969 5970 5970 5970 5971 5971 5971 5972 5972 5973 5973 5973 5974 5974 5974 5975 5975
5949 5950 5951 5953 5954 5955 5955 5956 5957 5958 5958 5959 5960 5961 5962 5963 5964 5965 5966 5966 5967 5967 5968 5968 5969 5969 5969 5970 5970 5971 5971 5971 5972 5972 5972 5973 5973 5973 5973 5974 5974 5974
5948 5949 5951 5952 5953 5954 5954 5955 5956 5957 5958 5959 5960 5961 5961 5962 5963 5964 5965 5966 5966 5967 5967 5968 5968 5969 5969 5969 5970 5970 5971 5971 5971 5972 5972 5972 5973 5973 5973 5973 5973 5973
5947 5948 5950 5951 5952 5953 5953 5954 5955 5956 5957 5958 5959 5960 5961 5962 5962 5963 5964 5965 5965 5966 5967 5967 5968 5968 5969 5969 5969 5970 5970 5970 5971 5971 5971 5972 5972 5972 5973 5973 5973 5973
5946 5947 5949 5950 5951 5952 5952 5953 5954 5955 5956 5957 5958 5959 5960 5961 5961 5962 5963 5963 5964 5965 5965 5966 5967 5967 5968 5968 5969 5969 5970 5970 5970 5970 5970 5971 5971 5972 5972 5972 5973 5973
5945 5946 5947 5948 5949 5950 5951 5952 5953 5954 5955 5956 5957 5958 5959 5959 5960 5961 5961 5962 5962 5963 5964 5965 5966 5966 5967 5968 5968 5969 5969 5970 5970 5970 5970 5970 5970 5971 5971 5972 5972 5972
5943 5945 5946 5947 5948 5949 5950 5951 5952 5953 5954 5955 5955 5956 5957 5958 5959 5960 5960 5961 5962 5962 5963 5964 5964 5965 5966 5967 5967 5968 5968 5969 5969 5970 5970 5970 5970 5970 5970 5970 5971 5972
5941 5942 5944 5945 5946 5947 5948 5949 5950 5951 5952 5953 5953 5954 5955 5956 5957 5958 5959 5960 5961 5962 5962 5963 5964 5964 5965 5965 5966 5966 5967 5967 5968 5968 5969 5969 5969 5969 5969 5970 5970 5970
5939 5940 5942 5943 5944 5945 5946 5947 5948 5949 5950 5951 5951 5952 5953 5955 5956 5957 5958 5959 5960 5961 5962 5963 5963 5964 5964 5965 5965 5965 5965 5966 5966 5967 5967 5968 5968 5969 5969 5969 5969 5970
5936 5938 5940 5941 5942 5943 5944 5945 5946 5947 5948 5949 5950 5951 5952 5954 5955 5955 5956 5957 5958 5959 5960 5961 5962 5963 5963 5964 5964 5964 5965 5965 5965 5966 5966 5967 5967 5968 5968 5968 5968 5969
5934 5936 5938 5939 5940 5941 5942 5943 5944 5945 5946 5947 5949 5950 5951 5952 5953 5953 5954 5955 5956 5957 5958 5959 5960 5961 5962 5962 5963 5963 5964 5964 5964 5965 5965 5966 5967 5967 5967 5967 5968 5968
5931 5933 5935 5937 5939 5939 5940 5941 5942 5943 5944 5945 5947 5948 5949 5950 5951 5951 5952 5953 5954 5955 5955 5956 5957 5958 5959 5960 5961 5962 5963 5963 5964 5964 5964 5965 5965 5966 5966 5966 5966 5966
5929 5930 5932 5934 5936 5937 5938 5939 5940 5941 5942 5943 5944 5946 5947 5948 5949 5950 5951 5951 5952 5953 5954 5954 5955 5956 5956 5958 5959 5960 5961 5962 5963 5963 5963 5964 5964 5964 5964 5964 5964 5964
5928 5929 5930 5931 5933 5934 5935 5937 5938 5939 5940 5941 5942 5944 5945 5946 5947 5948 5949 5950 5950 5951 5952 5953 5953 5953 5954 5955 5957 5958 5959 5960 5961 5961 5962 5962 5962 5962 5962 5962 5962 5962
5925 5926 5928 5929 5929 5931 5932 5934 5935 5936 5937 5939 5940 5941 5943 5944 5945 5946 5947 5948 5948 5949 5950 5950 5951 5951 5952 5953 5955 5956 5957 5958 5959 5959 5960 5960 5960 5960 5960 5960 5960 5960
5922 5923 5925 5926 5926 5927 5929 5930 5932 5933 5935 5936 5937 5939 5940 5941 5942 5943 5945 5945 5946 5947 5947 5948 5949 5949 5951 5952 5953 5954 5954 5955 5956 5956 5957 5957 5957 5957 5957 5957 5957 5957
5918 5919 5921 5922 5923 5924 5925 5927 5929 5930 5932 5933 5934 5936 5937 5938 5939 5940 5941 5942 5943 5944 5945 5945 5946 5947 5948 5949 5950 5951 5952 5952 5952 5953 5953 5954 5954 5955 5955 5955 5955 5955
5913 5914 5916 5918 5919 5920 5921 5924 5925 5927 5928 5929 5931 5932 5933 5934 5935 5937 5938 5939 5940 5941 5942 5943 5944 5944 5945 5946 5946 5947 5948 5949 5949 5949 5950 5950 5951 5952 5952 5952 5952 5953
5910 5911 5913 5914 5916 5917 5919 5920 5922 5924 5925 5925 5926 5927 5928 5930 5931 5933 5934 5935 5937 5938 5939 5940 5941 5941 5942 5942 5943 5943 5944 5945 5946 5946 5947 5947 5948 5948 5949 5950 5950 5950
5906 5908 5910 5912 5913 5913 5914 5915 5918 5920 5920 5920 5921 5923 5924 5926 5927 5929 5930 5932 5933 5935 5936 5937 5938 5938 5939 5939 5940 5940 5941 5942 5943 5944 5944 5944 5944 5945 5946 5946 5947 5948
5903 5905 5907 5907 5908 5908 5908 5910 5912 5914 5914 5915 5917 5919 5920 5921 5923 5925 5926 5928 5929 5931 5933 5934 5934 5935 5935 5936 5936 5937 5938 5939 5940 5941 5942 5942 5942 5942 5943 5943 5944 5944
5900 5902 5903 5903 5903 5903 5904 5906 5907 5908 5910 5913 5915 5916 5917 5918 5920 5922 5923 5924 5925 5927 5928 5929 5930 5931 5932 5932 5933 5934 5934 5935 5936 5937 5938 5939 5939 5939 5940 5940 5941 5941
5897 5899 5900 5899 5900 5900 5901 5903 5904 5905 5907 5909 5911 5912 5914 5915 5916 5918 5920 5921 5922 5923 5924 5925 5926 5927 5928 5929 5930 5930 5931 5931 5932 5934 5935 5935 5936 5936 5936 5937 5937 5938
5894 5895 5896 5896 5897 5898 5899 5900 5902 5903 5904 5905 5906 5908 5909 5911 5913 5914 5916 5917 5918 5919 5920 5921 5922 5923 5924 5925 5926 5927 5928 5928 5929 5930 5931 5931 5932 5932 5932 5933 5933 5934
5891 5892 5892 5893 5895 5896 5896 5897 5899 5900 5901 5901 5902 5903 5905 5907 5909 5910 5912 5913 5914 5915 5916 5917 5918 5919 5919 5921 5922 5923 5924 5925 5925 5926 5926 5927 5928 5928 5929 5929 5929 5930
Wind_Speed
12 11 11 11 11 11 11 12 12 12 12 12 12 12 12 11 11 11 11 10 11 11 10 11 11 11 11 11 11 11 12 12 11 10 10 10 10 10 10 10 10 10
13 12 12 12 12 11 10 10 10 10 10 10 11 11 11 11 12 11 11 11 11 11 11 11 11 11 10 10 10 10 11 11 10 10 10 10 10 10 10 10 10 10
14 13 13 13 12 12 11 10 10 9 10 10 10 10 11 11 11 11 12 12 12 11 11 11 11 11 11 11 11 10 10 10 10 10 10 10 10 10 10 10 10 10
15 15 14 13 12 13 13 12 11 10 10 10 10 10 11 11 11 11 11 11 11 11 11 11 11 11 11 11 11 11 11 11 11 10 10 10 10 10 10 10 11 11
16 15 14 14 13 13 13 14 13 12 11 11 11 11 11 11 11 11 11 11 11 10 10 10 11 11 11 11 11 11 11 12 11 11 11 11 11 11 11 11 11 11
16 15 15 14 14 13 13 13 14 13 13 13 12 12 11 11 11 11 11 11 11 11 10 10 11 11 11 11 11 11 11 11 11 11 11 11 11 11 11 11 11 11
17 16 16 15 15 14 13 13 14 14 14 14 14 13 12 12 11 11 11 11 11 11 11 11 11 11 11 11 11 11 11 11 11 11 10 10 11 11 11 11 12 12
18 17 17 17 16 16 15 14 14 14 15 15 15 15 14 14 13 12 12 12 12 12 11 11 11 11 11 11 11 11 11 11 10 10 10 10 10 10 10 11 12 12
19 19 19 19 19 18 17 17 16 16 16 16 16 16 16 15 15 14 14 13 13 12 12 12 11 11 11 11 11 11 11 11 11 11 11 10 10 10 10 11 11 11
20 20 20 21 21 21 20 20 19 18 18 18 17 17 16 16 15 15 15 15 14 14 13 13 12 12 12 12 12 11 12 12 12 12 12 12 12 11 12 12 11 11
23 22 22 22 23 23 23 22 22 21 21 20 19 18 17 16 16 16 16 16 16 15 15 14 14 13 13 13 13 13 13 13 13 13 14 14 14 14 14 13 13 12
25 24 24 23 23 23 23 23 23 23 22 21 21 20 19 18 17 18 18 18 17 17 16 15 15 15 15 14 15 15 15 15 15 15 15 16 16 16 16 15 15 14
28 27 26 25 24 24 23 23 24 23 23 23 23 22 22 21 21 20 20 20 19 19 18 17 17 17 16 16 16 16 16 16 16 16 16 16 17 17 17 17 17 16
29 29 28 27 26 25 25 24 24 24 24 24 24 24 24 24 23 23 23 22 21 21 20 19 19 19 19 18 18 18 17 17 17 16 17 17 17 17 17 18 18 18
28 29 29 29 29 28 27 26 25 25 25 25 25 25 25 25 25 25 25 25 24 23 22 22 21 21 21 20 20 19 19 18 17 17 17 17 17 17 18 18 19 18
27 28 29 30 30 30 29 28 27 27 26 26 26 26 26 26 26 26 26 26 26 25 24 24 24 24 23 22 21 21 20 19 19 18 18 18 18 18 19 19 19 19
28 29 30 30 31 31 31 30 29 29 28 28 27 27 26 26 26 26 26 27 27 26 26 26 26 25 24 23 22 22 21 21 20 20 20 20 20 20 20 21 21 20
32 32 32 32 32 32 31 30 30 30 30 29 29 28 28 27 27 27 27 27 27 27 27 26 26 26 25 24 23 23 23 23 22 22 21 21 22 22 22 22 22 22
33 34 35 36 36 35 33 32 32 32 31 31 30 30 30 29 29 28 28 28 28 28 28 27 26 27 26 25 25 24 24 24 24 23 22 22 23 23 24 24 24 23
30 30 32 36 37 36 35 34 34 34 33 33 33 32 32 32 31 30 29 29 29 28 28 27 26 27 27 27 26 26 26 26 25 25 24 23 23 24 24 25 25 25
29 28 29 32 35 37 37 37 36 35 35 35 34 34 33 33 33 32 31 30 30 29 28 27 27 28 28 28 28 27 26 26 26 26 26 25 25 24 25 25 26 26
26 25 26 28 32 37 40 41 39 38 37 36 34 33 33 33 32 33 33 32 31 29 28 28 29 29 29 29 29 28 27 26 26 26 27 27 26 26 26 26 26 26
22 22 23 25 29 33 37 40 39 38 36 34 33 33 33 32 31 32 33 33 32 30 30 29 30 30 31 32 32 31 29 28 27 27 27 27 27 27 27 27 27 27
20 19 19 20 21 23 26 30 33 34 33 32 32 33 34 34 33 32 32 32 32 31 31 31 31 32 32 33 34 33 32 30 29 28 28 28 28 28 28 28 28 27
24 22 21 19 18 18 19 21 23 27 31 32 32 33 34 34 34 33 33 33 33 33 33 33 34 33 33 33 33 33 33 32 31 31 31 30 30 29 29 29 28 28
23 24 24 23 22 21 22 22 21 22 25 27 27 29 32 34 35 34 33 33 34 34 34 34 35 35 34 34 34 35 34 33 33 34 33 33 32 31 30 30 30 29
Wind_Direction
177 182 183 190 192 190 190 191 192 193 192 192 191 191 192 192 190 190 191 190 188 184 183 184 185 186 188 190 189 191 196 199 199 201 203 204 204 204 204 206 208 210
179 182 183 188 193 193 194 194 195 196 200 203 202 199 198 198 196 196 196 197 196 194 193 195 197 197 199 202 202 204 209 211 210 210 211 210 210 211 210 209 209 211
184 186 186 187 190 193 196 198 200 201 205 210 210 210 209 208 205 204 204 204 204 203 203 205 209 210 210 212 213 216 219 222 222 221 221 219 217 218 218 216 216 216
189 189 189 190 192 195 196 197 200 205 208 213 215 216 216 215 213 212 212 211 211 211 211 212 216 218 220 221 222 223 224 226 228 228 228 227 226 226 226 225 223 221
195 193 193 192 194 198 199 198 199 202 207 213 217 218 218 217 217 217 217 216 216 217 218 220 222 223 225 227 229 229 229 229 229 229 229 229 231 232 231 232 231 227
201 200 199 198 199 201 201 201 200 200 205 211 216 218 219 218 218 218 218 218 217 217 220 224 227 228 228 228 230 232 233 233 232 229 228 228 230 233 235 238 239 237
210 207 205 205 206 206 204 204 204 203 205 210 214 216 218 220 220 221 220 219 219 218 218 222 227 230 231 232 233 234 236 237 237 235 233 231 232 233 236 239 242 243
214 211 209 209 211 211 209 208 208 207 209 212 214 216 218 219 222 224 225 225 224 222 221 222 225 229 232 234 236 239 242 244 246 246 244 243 241 241 241 242 242 243
215 214 211 210 212 213 213 213 212 210 212 214 215 216 218 219 222 225 229 231 231 231 231 230 231 233 235 236 238 241 245 248 251 253 254 254 252 250 248 247 245 244
217 217 215 213 212 213 214 215 215 214 216 217 216 218 220 220 221 224 227 230 233 236 238 240 241 241 242 244 244 245 246 249 251 254 256 257 257 255 253 253 251 248
216 218 219 218 216 216 216 216 216 217 218 219 218 220 221 221 222 224 226 227 229 232 236 239 242 244 245 247 248 248 248 248 250 252 255 256 255 255 255 255 255 254
218 218 221 223 223 222 221 220 220 220 221 221 221 221 222 222 222 223 225 226 226 227 229 231 234 238 240 243 246 248 248 248 249 251 253 254 254 254 255 255 256 257
220 219 220 223 226 227 226 225 224 224 225 225 225 224 223 223 224 225 226 226 226 226 227 227 229 233 236 238 242 245 248 249 250 250 251 252 253 254 255 256 257 257
224 223 222 222 225 227 228 228 228 227 228 228 229 228 227 227 227 228 228 228 228 228 228 228 229 231 234 237 240 244 248 250 251 251 251 251 251 253 255 256 257 257
228 227 226 225 225 227 228 229 229 229 229 229 231 232 232 232 232 233 233 233 232 231 232 232 232 233 235 237 240 244 248 251 253 254 253 252 252 252 254 255 256 256
230 230 230 229 228 228 229 229 230 231 231 231 231 232 234 235 236 237 238 238 238 236 235 236 236 237 239 240 242 245 248 252 254 255 256 255 253 252 252 253 253 254
232 232 232 232 232 230 230 230 231 232 233 233 233 233 234 235 236 238 239 241 242 241 240 240 242 243 244 246 248 249 251 252 254 256 257 257 256 255 254 254 253 253
236 235 232 232 233 232 231 232 233 233 234 235 235 235 235 235 236 237 238 239 241 242 243 243 244 246 247 248 250 252 253 253 252 253 255 257 259 260 259 258 257 257
236 236 234 232 231 231 231 232 234 234 234 236 237 237 236 235 236 237 238 239 240 241 243 244 245 247 248 248 249 250 252 253 253 252 253 256 259 261 263 263 263 263
235 236 237 235 233 232 232 234 236 236 238 238 238 238 237 236 235 236 237 239 240 241 243 245 246 247 248 248 248 248 249 251 253 254 253 254 256 260 263 266 267 268
238 240 242 241 237 234 233 234 234 235 237 238 238 238 238 237 235 235 235 237 239 241 244 246 247 248 249 249 249 248 249 250 253 255 255 255 255 257 261 265 267 270
240 241 243 241 238 235 233 231 231 231 232 234 235 236 237 236 235 235 235 236 238 240 242 245 248 249 250 251 251 251 250 250 252 255 257 257 257 258 259 261 265 268
234 236 239 239 239 238 236 233 232 232 233 234 235 235 237 238 238 238 237 237 238 239 241 244 247 250 251 252 252 252 252 251 251 253 255 257 257 258 258 259 261 264
237 237 238 239 239 240 239 236 236 238 237 237 236 235 236 238 240 239 238 238 239 242 244 246 248 251 253 253 252 252 252 253 252 253 254 255 255 255 255 256 257 259
248 245 243 244 244 246 247 247 246 244 242 241 240 239 238 239 241 240 239 239 242 246 250 251 251 252 252 251 250 250 252 255 256 255 255 255 255 254 253 252 253 254
247 245 245 246 247 249 252 253 252 248 243 241 240 239 237 237 240 242 241 242 245 249 252 252 251 251 251 250 248 248 252 256 258 258 255 253 253 253 252 251 251 252